Snowfall_Accumulation
0.0 0.0 0.0 0.0 0.0 0.0 0.0 0.0 11.6 0.0 0.0 5.4 10.4 11.0 4.6 0.4 0.2 0.0 0.7 0.7 0.8 1.5 1.2 2.1 0.1 0.4 0.4 1.3 2.5 1.9 1.8 5.7 3.8 2.3 2.6 2.1 4.0 3.2 4.2 8.3 7.7 7.5 5.6 4.7
0.0 0.0 0.0 0.0 0.0 0.0 0.0 4.4 2.7 0.0 0.0 10.5 6.7 1.1 0.0 2.1 1.9 0.6 2.3 1.8 2.4 1.8 1.1 5.0 0.0 2.6 1.9 0.4 1.9 3.4 2.7 5.0 3.9 4.2 2.4 2.2 5.3 4.5 3.7 4.8 8.6 8.1 6.3 2.3
0.0 0.0 0.0 0.0 0.0 0.0 0.0 4.5 10.6 0.0 0.0 0.0 3.5 4.3 1.9 1.0 1.1 2.1 2.1 2.4 0.1 2.5 0.8 0.1 4.0 2.9 3.4 2.2 2.1 1.6 6.4 6.3 4.4 4.2 8.7 10.1 7.7 3.8 2.8 5.0 10.8 4.8 2.8 1.1
0.0 0.0 0.0 0.0 0.0 0.0 0.0 5.5 6.8 0.0 9.1 1.9 3.6 4.9 4.4 2.4 3.0 0.4 1.8 2.3 1.8 3.7 5.5 2.0 1.8 0.7 0.5 0.1 2.0 2.5 4.0 4.9 1.0 2.1 2.9 7.0 5.6 3.9 4.0 6.1 3.6 5.7 3.5 1.4
0.0 0.0 0.0 0.0 0.0 0.0 0.0 5.7 5.0 3.5 3.6 0.9 1.9 2.5 2.6 1.4 1.6 3.1 2.6 2.2 1.4 1.8 4.4 3.6 4.2 3.5 1.1 2.2 2.0 4.5 4.9 6.6 6.2 6.8 3.5 3.8 3.9 2.0 2.8 2.6 2.7 2.4 3.1 2.8
0.0 0.0 0.0 0.0 0.0 0.0 0.0 2.9 1.6 13.6 4.4 0.7 1.6 2.0 1.3 2.4 2.0 0.6 0.5 1.2 3.7 3.0 0.6 0.3 1.0 2.1 3.1 3.6 3.3 2.5 8.7 10.9 13.8 10.9 2.6 4.6 4.1 4.8 4.4 5.3 6.3 5.5 4.6 4.0
0.0 0.0 0.0 0.0 0.0 0.0 0.0 0.0 4.2 23.1 10.6 1.9 0.7 0.1 0.5 1.1 0.4 2.8 0.0 0.2 6.5 0.8 0.1 2.5 2.4 1.8 3.5 3.8 3.2 1.5 6.1 10.6 15.8 17.1 12.3 15.2 6.6 2.5 2.6 4.6 6.0 6.6 4.8 2.6
0.0 0.0 0.0 0.0 0.0 0.0 0.0 0.0 3.1 23.8 18.3 1.1 0.6 0.5 0.8 0.2 0.0 0.8 0.9 0.0 0.1 2.3 5.0 6.5 6.2 3.5 1.9 1.1 1.0 2.3 3.2 8.0 13.7 14.9 11.2 8.4 5.2 4.9 6.4 6.2 6.4 5.1 3.8 1.5
0.0 0.0 0.0 0.0 0.0 0.0 0.0 0.0 0.0 17.1 28.6 4.4 0.3 0.5 0.5 3.1 2.8 2.3 0.3 0.0 0.0 4.1 8.3 8.9 9.2 3.7 1.0 1.5 0.7 0.4 1.6 4.6 14.0 13.6 12.1 7.2 5.6 6.5 8.0 4.4 5.2 3.1 2.7 1.8
0.0 0.0 0.0 0.0 0.0 0.0 0.0 0.0 0.0 3.6 37.5 0.7 0.0 2.4 3.6 2.6 2.8 6.1 1.7 1.2 2.8 3.0 7.4 9.5 6.7 3.6 1.9 1.5 2.6 1.7 1.6 4.7 11.0 9.1 13.3 6.3 4.7 4.2 5.5 7.1 5.8 3.6 4.0 3.0
0.0 0.0 0.0 0.0 0.0 0.0 0.0 0.0 0.0 0.0 32.8 1.8 0.0 0.0 0.6 3.7 5.5 10.7 5.5 8.1 4.0 5.8 8.9 8.3 1.8 5.1 1.5 2.3 2.2 4.9 4.3 5.5 5.8 7.6 14.3 7.3 2.1 1.7 5.5 6.8 3.5 3.5 3.4 3.9
0.0 0.0 0.0 0.0 0.0 0.0 0.0 0.0 0.0 0.0 8.0 3.7 0.0 0.0 0.0 0.0 0.2 4.6 15.0 7.6 2.3 7.8 9.6 6.0 9.3 8.1 5.1 2.4 3.6 1.3 5.8 6.6 7.9 6.7 7.9 6.6 5.0 6.4 6.2 3.3 2.0 1.6 1.8 2.3
0.0 0.0 0.0 0.0 0.0 0.0 0.0 0.0 0.0 0.0 17.4 6.7 2.4 1.1 0.1 0.0 0.6 0.9 16.8 11.4 4.3 6.8 4.8 13.7 14.2 12.4 5.8 4.7 2.2 0.8 3.1 2.3 3.4 2.8 1.9 0.6 3.9 2.3 1.6 1.5 2.5 1.8 1.0 1.0
0.0 0.0 0.0 0.0 0.0 0.0 0.0 0.0 0.0 0.0 22.3 34.6 6.5 0.2 0.1 0.0 0.2 2.5 4.7 5.9 7.6 9.6 9.4 19.6 18.0 11.9 3.8 3.8 1.7 1.1 1.2 0.7 1.9 2.5 0.4 0.6 1.6 0.7 1.0 1.1 0.8 0.7 0.3 1.0
0.0 0.0 0.0 0.0 0.0 0.0 0.0 0.0 0.0 0.0 6.2 34.9 12.5 2.9 0.9 0.0 0.1 1.6 3.5 5.7 7.5 9.7 14.4 18.5 14.1 5.8 7.1 7.1 4.7 2.8 1.4 1.9 2.6 1.8 1.0 1.9 0.5 0.5 0.5 0.7 0.7 0.4 0.4 1.4
0.0 0.0 0.0 0.0 0.0 0.0 0.0 11.2 0.0 0.0 0.8 26.2 28.1 3.8 0.5 0.0 0.3 1.1 2.2 3.3 4.7 9.3 13.7 14.9 7.9 4.8 7.7 12.5 5.8 1.3 0.8 0.9 2.3 2.3 1.1 1.3 1.1 0.5 0.5 1.5 0.9 0.6 1.1 1.8
0.0 0.0 0.0 0.0 0.0 0.0 3.4 14.8 2.4 0.0 0.0 39.0 47.4 25.8 4.0 1.6 1.7 3.2 4.1 4.2 4.9 11.6 19.7 15.0 9.4 7.6 11.9 16.3 6.8 1.0 0.8 1.3 2.0 1.4 0.9 1.7 0.7 0.9 1.6 0.9 0.5 1.7 1.5 1.2
0.0 0.0 0.0 0.0 0.0 3.2 4.7 3.3 4.1 2.7 10.6 31.3 67.4 36.6 13.9 3.1 4.1 7.5 8.0 8.9 8.5 21.9 16.2 12.7 6.7 7.3 14.3 16.6 2.1 1.2 1.1 1.6 2.5 2.4 1.9 3.9 3.0 2.7 2.9 0.7 1.8 1.5 1.7 1.7
0.0 0.0 0.0 5.0 5.0 3.9 3.0 4.1 4.4 3.8 7.3 67.7 45.3 24.4 14.1 6.6 3.7 6.2 10.2 12.8 25.3 19.2 20.5 9.5 7.5 15.6 19.5 9.4 3.6 1.7 2.9 4.9 4.2 4.0 3.1 2.4 2.3 3.0 2.9 2.1 1.7 2.7 4.5 3.4
0.0 7.8 12.1 26.7 9.0 2.7 3.3 5.1 20.2 37.2 50.0 46.9 30.0 14.9 11.5 8.1 10.6 12.3 17.0 23.7 28.2 31.8 18.7 11.9 20.1 13.8 8.1 5.9 7.0 6.6 6.3 6.1 6.0 9.2 7.2 4.2 5.7 5.0 5.4 5.9 6.1 6.0 6.3 6.3
11.3 30.0 29.5 10.7 4.9 5.9 15.6 48.8 49.2 40.4 35.2 18.9 13.9 9.0 10.7 8.8 18.0 19.4 22.1 29.6 27.5 28.1 16.3 13.8 16.2 13.3 7.4 5.8 7.7 7.8 7.6 7.6 7.4 7.7 8.4 10.0 12.0 11.8 9.0 7.1 9.8 8.0 8.5 8.9
14.1 13.3 17.7 16.7 40.0 49.2 49.7 43.3 22.4 15.5 12.5 13.8 9.8 7.1 9.1 14.6 15.5 24.4 28.6 25.8 23.8 20.3 10.3 16.3 13.0 8.5 7.3 9.1 8.9 8.8 8.7 8.4 7.9 7.9 9.7 8.3 8.5 9.1 9.0 9.6 9.6 8.8 8.5 7.7
19.1 41.2 51.0 42.8 43.1 46.0 33.2 17.7 12.5 12.4 10.2 11.3 9.9 11.2 12.4 15.8 21.9 30.2 26.3 24.9 17.9 11.7 13.7 10.6 9.0 7.0 6.9 8.4 10.1 10.2 10.3 8.4 8.8 9.1 7.0 7.2 7.3 6.9 6.7 6.6 5.5 5.6 5.4 6.2
41.7 48.4 41.7 26.9 23.3 13.1 11.1 8.7 9.0 10.2 12.7 14.3 14.7 15.6 17.7 16.1 23.3 22.5 23.5 16.4 10.8 17.2 12.1 9.4 8.3 8.4 7.7 7.2 7.9 8.0 8.2 8.5 8.3 10.7 10.6 8.4 7.0 6.1 5.4 5.9 6.6 5.8 5.2 5.8
57.8 42.0 27.0 15.6 9.6 7.3 9.4 9.6 9.6 11.9 15.1 18.2 19.1 19.3 18.3 20.6 24.3 17.3 11.4 15.7 14.2 12.1 10.3 9.7 9.9 9.8 9.4 8.8 8.0 7.2 6.7 7.4 7.6 7.6 8.1 9.1 6.7 4.9 4.2 5.5 5.6 5.4 5.4 4.4
45.8 32.2 14.5 7.4 6.7 7.7 6.8 9.0 9.5 10.9 12.7 14.4 18.5 18.1 18.7 17.2 15.3 14.3 11.0 11.1 10.2 11.1 11.6 11.6 10.5 9.7 9.1 9.5 9.1 8.5 8.5 8.6 8.8 8.6 9.4 8.5 8.6 9.2 9.0 6.9 6.0 5.8 6.2 4.9
38.4 14.7 8.6 8.9 6.9 6.8 6.9 6.7 6.9 7.1 9.0 10.7 12.4 16.6 11.6 12.4 13.0 9.8 8.1 10.2 11.5 10.7 8.8 8.2 8.6 8.1 8.0 7.6 6.8 6.5 5.9 5.7 5.9 7.0 8.0 9.3 10.0 9.4 7.7 7.8 9.7 8.9 8.6 7.9